Wind_Speed
50 51 54 57 59 59 59 59 58 58 57 55 53 52 50 49 48 47 46 45 43 41 39 38 36 34 33 31 30 29 29 28 27 27 27 27 27 28 29 30 31 32 33
47 49 52 54 57 59 59 59 58 58 57 56 54 52 51 50 49 48 46 45 44 42 40 38 37 35 34 33 32 31 30 29 29 28 29 28 29 29 30 31 32 33 34
45 48 51 53 55 57 58 59 58 57 57 56 54 52 51 51 50 48 47 46 45 44 42 40 38 37 35 34 33 32 31 31 30 30 30 30 30 31 32 32 33 34 35
43 46 49 52 53 56 57 58 58 57 57 57 55 52 51 51 50 49 48 48 47 45 43 41 39 38 36 36 35 34 33 32 32 31 31 31 31 32 32 33 34 34 36
41 44 47 51 52 54 56 58 58 57 56 56 55 53 51 51 51 50 49 48 47 45 43 42 40 39 38 37 36 35 34 34 33 33 32 32 33 33 34 34 34 35 36
39 41 45 49 51 52 55 57 58 57 56 56 55 54 51 51 51 49 48 47 47 45 44 42 41 40 39 38 37 36 35 35 34 34 34 34 34 34 35 35 35 36 37
37 39 42 46 49 51 54 56 58 57 57 56 55 55 52 51 51 49 48 47 46 45 44 43 42 40 39 38 37 36 36 36 35 35 35 35 35 35 36 36 36 37 38
35 38 40 44 48 50 53 55 56 56 57 57 55 54 52 50 50 50 48 47 46 45 44 44 43 41 40 38 38 37 37 37 36 36 36 36 36 36 36 37 37 38 39
33 36 39 42 47 49 51 54 55 55 56 57 56 56 52 50 49 49 49 47 46 45 44 43 43 41 40 39 38 38 37 37 37 37 37 37 36 36 37 37 38 39 39
33 36 39 40 44 47 50 53 55 56 55 56 57 56 54 51 50 49 49 48 46 46 45 44 43 42 41 40 39 38 38 37 37 37 37 37 37 37 38 38 39 40 41
31 35 38 40 44 46 49 53 54 54 56 56 56 56 53 52 50 50 49 49 47 46 45 45 44 43 41 40 39 38 38 38 37 37 37 37 37 38 38 39 39 41 41
29 32 36 40 43 46 49 52 53 54 55 56 57 58 54 52 52 50 49 49 48 47 46 45 44 43 42 41 39 39 39 38 38 38 38 38 38 38 38 39 40 41 42
31 31 35 39 42 45 47 50 52 53 54 55 56 57 55 53 52 51 49 48 48 47 46 45 44 42 41 41 40 39 39 38 38 38 38 38 38 38 39 39 40 41 42
31 32 33 37 41 45 46 48 51 52 53 54 54 55 54 54 52 51 50 49 49 48 47 46 45 43 42 41 40 40 39 38 38 38 38 38 38 39 39 40 40 41 41
31 32 34 36 40 45 46 47 49 50 52 54 54 55 54 53 53 52 50 50 49 48 47 47 46 45 43 42 41 40 39 39 39 38 38 38 38 39 39 39 40 41 41
32 33 34 36 39 43 45 46 48 48 51 52 53 54 54 53 52 51 50 50 49 49 48 47 46 46 44 42 42 40 40 39 38 38 38 38 39 38 39 39 39 39 40
33 34 36 36 37 41 43 46 48 48 49 50 52 53 54 54 53 51 50 49 49 49 48 47 47 46 44 43 42 40 39 39 38 38 38 38 38 38 38 38 38 39 40
33 34 36 38 39 40 42 44 47 48 49 50 51 51 52 53 53 52 51 50 49 48 47 47 46 45 43 42 41 40 39 39 38 38 37 37 37 37 37 38 38 39 39
32 34 35 37 39 41 42 44 45 47 49 49 50 50 52 53 52 52 51 50 49 48 47 46 45 44 43 41 41 40 40 38 38 38 37 37 36 36 36 37 38 38 39
31 33 35 36 38 41 43 44 44 45 47 48 49 50 52 52 52 52 52 51 51 49 47 45 44 44 43 42 41 41 40 39 39 38 37 36 35 35 36 37 38 37 38
30 33 35 35 38 40 43 43 43 44 45 47 49 49 50 51 52 51 50 50 50 49 48 46 45 44 43 43 42 41 40 40 39 38 36 35 35 35 36 36 36 37 38
30 32 35 36 37 40 42 43 42 44 45 46 48 49 50 49 49 49 49 48 47 48 48 47 45 43 42 42 42 41 40 39 38 36 34 34 34 34 34 34 35 37 38
31 32 34 36 37 39 42 43 43 44 44 45 46 47 47 48 49 48 47 47 47 47 47 46 45 43 40 40 40 39 38 37 35 34 34 33 33 33 33 34 35 36 36
31 31 33 34 35 37 40 42 43 45 44 45 46 47 47 47 47 47 46 46 45 44 45 45 44 43 41 39 39 38 37 35 33 32 32 32 32 32 32 33 33 34 35
30 31 33 33 34 36 39 40 42 43 44 45 46 46 48 47 47 47 45 44 43 42 43 42 42 42 41 40 38 36 35 34 32 31 31 31 30 30 31 32 32 33 34
30 31 32 33 34 36 38 40 40 42 43 44 44 45 46 47 47 46 45 44 44 43 42 41 40 40 40 39 38 35 35 33 32 31 30 29 28 29 29 30 31 32 33
Wind_Direction
222 220 219 218 217 217 218 218 219 218 219 221 221 223 224 225 226 225 226 227 229 231 233 234 236 238 242 245 248 252 257 262 267 272 276 281 285 289 293 296 298 301 303
221 220 218 217 217 216 217 218 218 218 219 220 221 221 223 224 225 225 226 227 229 231 233 235 236 238 241 245 248 252 257 261 266 270 275 279 284 288 292 296 298 301 303
221 219 219 218 216 216 216 217 218 219 219 219 220 220 222 223 224 225 226 227 229 230 232 234 236 238 241 244 248 252 257 260 265 269 274 278 283 288 292 295 298 300 303
222 220 219 218 217 216 216 217 218 219 219 220 220 221 222 223 224 225 227 228 229 231 233 235 236 238 241 245 248 252 256 260 265 269 273 277 283 287 290 293 296 299 301
223 221 219 217 217 216 216 216 217 219 219 219 220 220 221 222 223 224 226 228 229 231 232 235 237 239 242 246 249 252 256 261 264 268 272 277 282 286 289 292 295 298 301
223 222 220 218 216 216 216 216 216 218 218 218 219 220 221 222 223 224 225 227 229 230 232 235 238 241 244 246 249 252 256 260 264 268 272 277 282 285 289 292 295 298 301
223 222 220 220 218 217 217 216 216 218 218 219 219 220 221 223 223 223 225 227 229 231 233 235 238 241 244 246 249 252 256 259 263 268 272 276 281 284 288 291 294 297 300
223 221 221 220 219 218 218 216 216 218 218 219 219 220 221 223 223 224 225 227 229 232 234 236 238 241 244 247 250 253 256 260 263 267 272 276 280 283 287 291 294 296 299
225 222 221 220 219 218 218 217 217 217 218 219 220 221 222 223 224 225 226 227 229 231 233 236 239 242 245 247 250 254 257 260 264 268 272 275 279 283 287 290 293 296 299
226 224 223 221 219 218 218 218 217 217 218 220 220 221 222 224 223 225 226 226 228 231 234 236 240 242 245 248 251 255 258 260 264 268 272 275 278 282 286 290 293 297 299
228 226 224 223 220 218 217 217 218 218 218 219 220 221 222 223 224 226 226 227 228 231 234 237 240 243 246 249 252 255 259 262 265 268 272 275 278 282 286 289 293 296 299
231 227 225 223 221 219 218 218 219 219 220 220 220 220 221 223 224 225 227 228 229 232 235 237 240 244 247 250 253 256 259 263 266 269 272 274 277 282 286 289 293 296 299
232 230 226 224 222 219 218 219 220 220 220 220 220 220 221 222 224 224 226 228 230 232 235 237 240 244 248 250 253 256 259 263 266 269 272 274 278 283 286 289 293 296 299
233 231 229 226 223 220 219 219 220 221 221 221 221 220 222 222 223 224 226 228 231 233 235 238 241 244 247 250 253 257 260 263 267 270 272 275 279 283 286 289 293 296 299
236 233 230 227 224 221 220 220 221 221 221 221 221 221 221 223 224 225 226 229 231 233 236 238 241 244 246 250 253 257 260 263 266 269 272 276 280 283 286 290 293 296 299
238 236 231 227 225 223 221 220 221 222 221 222 222 222 222 223 223 225 227 230 231 233 236 239 241 243 246 249 253 256 259 262 265 269 272 276 280 283 286 290 293 296 299
240 238 233 229 227 225 223 222 222 222 222 222 221 222 222 222 224 225 227 229 231 233 236 238 241 244 246 249 252 255 259 262 265 269 272 276 279 282 285 289 292 296 299
241 237 233 230 228 226 225 223 222 222 222 222 221 221 221 222 224 225 227 229 231 233 235 238 241 244 246 249 252 255 257 261 265 269 272 275 278 282 285 289 293 296 299
241 237 233 230 229 227 226 224 223 223 222 221 221 221 222 223 225 226 227 229 230 232 234 237 240 243 245 248 251 254 257 261 265 268 271 274 277 281 285 289 292 296 299
241 236 233 231 230 228 226 225 224 224 224 223 221 221 222 224 225 227 228 229 231 232 234 237 239 242 244 248 251 254 257 261 265 267 269 272 276 281 285 289 292 296 299
243 237 234 233 230 227 225 224 224 224 225 225 223 222 223 225 226 227 228 229 231 232 234 236 238 241 244 248 251 254 257 260 263 266 268 270 276 281 285 289 292 296 299
245 239 235 234 231 227 225 223 223 224 224 225 224 224 225 226 227 228 228 229 231 233 235 236 238 240 244 247 250 253 256 259 261 264 268 271 276 280 285 289 292 295 299
246 241 237 233 231 228 226 224 223 224 224 225 225 226 226 226 227 229 231 231 232 233 235 236 238 240 244 246 249 252 255 259 261 264 267 271 276 280 284 287 291 296 300
244 240 235 232 229 227 225 225 223 223 223 225 226 227 227 227 228 229 231 232 233 235 235 236 238 241 243 246 249 252 254 257 259 263 267 271 276 279 283 287 292 297 302
242 237 234 231 228 227 226 224 223 222 223 224 225 226 227 227 228 229 230 232 233 236 237 238 240 241 243 245 249 251 253 254 257 261 265 271 276 280 284 288 293 299 304
242 237 234 233 229 227 226 225 224 223 223 223 223 224 227 227 228 228 229 231 232 234 236 237 239 240 242 244 246 248 250 251 255 260 266 271 275 281 285 290 295 300 305
Height
5633 5641 5649 5658 5668 5678 5688 5697 5706 5714 5722 5729 5736 5743 5750 5756 5761 5767 5772 5777 5782 5786 5790 5793 5796 5799 5802 5803 5805 5805 5806 5806 5806 5806 5805 5803 5802 5800 5798 5795 5792 5789 5786
5624 5631 5639 5648 5657 5667 5677 5687 5696 5704 5713 5721 5728 5735 5741 5747 5753 5759 5764 5769 5774 5779 5783 5787 5790 5793 5795 5797 5798 5799 5800 5800 5800 5800 5799 5797 5796 5794 5792 5789 5786 5783 5780
5615 5623 5631 5639 5648 5658 5667 5677 5686 5695 5703 5711 5718 5725 5731 5737 5744 5750 5756 5762 5766 5771 5776 5779 5783 5786 5788 5790 5792 5793 5794 5794 5794 5793 5793 5792 5790 5788 5786 5783 5780 5777 5773
5608 5614 5622 5631 5639 5649 5658 5667 5676 5685 5693 5701 5709 5716 5723 5730 5737 5743 5748 5753 5758 5763 5768 5772 5775 5778 5781 5783 5785 5786 5787 5787 5787 5787 5786 5785 5783 5782 5779 5777 5773 5770 5766
5601 5607 5614 5622 5631 5639 5648 5657 5667 5675 5684 5692 5700 5708 5715 5721 5728 5734 5739 5745 5750 5755 5760 5764 5768 5771 5774 5776 5778 5779 5780 5780 5781 5780 5780 5778 5777 5775 5773 5770 5767 5764 5760
5595 5600 5607 5614 5622 5630 5639 5648 5657 5666 5674 5682 5691 5699 5706 5713 5719 5725 5731 5737 5742 5748 5752 5756 5760 5763 5766 5769 5770 5772 5773 5773 5774 5773 5773 5772 5770 5768 5766 5763 5760 5757 5753
5588 5594 5601 5607 5615 5623 5631 5639 5648 5657 5665 5674 5682 5690 5697 5704 5710 5717 5723 5729 5734 5740 5745 5748 5752 5756 5759 5761 5763 5764 5765 5766 5766 5766 5766 5765 5763 5761 5759 5756 5753 5749 5746
5582 5588 5594 5600 5607 5615 5623 5631 5640 5649 5657 5665 5673 5681 5688 5695 5702 5709 5715 5721 5727 5732 5736 5740 5744 5747 5751 5753 5755 5757 5758 5759 5759 5759 5758 5757 5756 5754 5752 5749 5746 5742 5739
5577 5581 5587 5593 5599 5607 5614 5623 5632 5640 5648 5656 5664 5672 5679 5687 5694 5700 5707 5712 5718 5723 5728 5732 5736 5739 5742 5745 5747 5749 5750 5751 5751 5751 5751 5750 5749 5747 5744 5742 5738 5735 5731
5570 5575 5580 5585 5592 5599 5606 5614 5622 5631 5639 5647 5655 5663 5671 5678 5685 5691 5698 5704 5710 5714 5719 5724 5728 5731 5734 5737 5739 5741 5742 5743 5744 5744 5744 5743 5741 5739 5737 5734 5731 5727 5723
5564 5568 5572 5578 5584 5591 5598 5606 5613 5621 5629 5637 5646 5654 5662 5669 5676 5683 5689 5696 5701 5706 5711 5716 5720 5723 5726 5729 5731 5733 5735 5736 5736 5736 5736 5735 5734 5732 5729 5727 5723 5719 5715
5557 5561 5565 5570 5576 5582 5589 5597 5605 5612 5620 5628 5636 5645 5652 5660 5667 5674 5681 5687 5692 5698 5703 5707 5711 5715 5718 5721 5723 5725 5727 5728 5728 5728 5728 5727 5726 5724 5722 5719 5715 5712 5707
5551 5554 5558 5563 5568 5574 5581 5588 5596 5603 5611 5619 5627 5635 5643 5651 5658 5665 5672 5678 5684 5689 5694 5698 5703 5707 5710 5712 5715 5717 5719 5720 5720 5720 5720 5719 5718 5716 5714 5711 5707 5704 5699
5544 5547 5551 5555 5560 5566 5573 5580 5587 5594 5602 5610 5617 5626 5634 5642 5650 5657 5663 5669 5675 5680 5686 5690 5694 5698 5701 5704 5707 5709 5710 5711 5712 5712 5712 5711 5710 5708 5706 5703 5699 5696 5691
5537 5540 5543 5547 5552 5558 5565 5571 5578 5585 5593 5601 5609 5617 5625 5633 5641 5648 5654 5660 5666 5671 5677 5681 5685 5689 5692 5696 5699 5701 5702 5703 5704 5704 5704 5703 5702 5700 5697 5695 5691 5688 5684
5529 5532 5535 5540 5544 5550 5556 5563 5570 5576 5584 5591 5600 5608 5616 5624 5631 5639 5645 5651 5657 5662 5667 5672 5676 5680 5684 5688 5690 5692 5694 5695 5695 5695 5695 5695 5693 5691 5689 5686 5683 5680 5676
5521 5524 5527 5532 5537 5542 5548 5555 5561 5568 5575 5582 5590 5598 5606 5614 5622 5629 5636 5642 5648 5653 5658 5663 5668 5672 5676 5679 5681 5683 5685 5686 5687 5687 5687 5686 5685 5683 5681 5678 5675 5672 5667
5512 5515 5519 5524 5529 5534 5540 5546 5552 5559 5566 5573 5580 5588 5596 5604 5612 5620 5626 5632 5638 5644 5649 5654 5659 5663 5667 5670 5672 5674 5676 5677 5678 5679 5679 5678 5676 5675 5673 5670 5667 5664 5659
5504 5507 5511 5515 5520 5525 5531 5537 5543 5550 5556 5563 5571 5578 5587 5595 5603 5610 5617 5623 5629 5634 5640 5645 5649 5654 5658 5661 5663 5665 5667 5668 5669 5670 5670 5669 5668 5667 5665 5662 5660 5656 5651
5495 5498 5502 5507 5511 5516 5522 5529 5535 5541 5547 5554 5562 5569 5577 5586 5593 5600 5607 5613 5619 5625 5631 5635 5640 5645 5648 5651 5654 5656 5658 5660 5661 5661 5661 5661 5660 5659 5656 5654 5651 5647 5643
5487 5490 5494 5498 5503 5508 5514 5520 5526 5533 5539 5546 5553 5561 5568 5576 5584 5591 5597 5603 5610 5615 5621 5626 5631 5635 5639 5642 5645 5647 5649 5651 5652 5653 5653 5652 5652 5650 5648 5646 5643 5639 5635
5479 5482 5485 5489 5494 5499 5505 5512 5518 5524 5531 5538 5545 5552 5559 5567 5574 5580 5587 5594 5599 5605 5611 5616 5621 5625 5629 5633 5636 5638 5640 5642 5644 5644 5644 5644 5643 5642 5640 5637 5635 5631 5627
5471 5473 5477 5481 5485 5490 5496 5503 5510 5516 5523 5529 5536 5543 5550 5557 5564 5571 5577 5584 5590 5595 5601 5606 5611 5616 5620 5623 5626 5629 5631 5633 5635 5636 5636 5636 5635 5634 5632 5630 5626 5623 5619
5462 5465 5468 5472 5477 5482 5488 5494 5501 5507 5514 5520 5527 5533 5540 5547 5555 5561 5568 5574 5580 5586 5592 5597 5601 5606 5611 5615 5618 5621 5623 5625 5626 5627 5627 5627 5627 5626 5624 5621 5618 5615 5611
5454 5457 5460 5464 5468 5473 5479 5485 5491 5498 5504 5511 5518 5524 5531 5538 5545 5552 5558 5565 5571 5577 5583 5588 5593 5598 5602 5606 5610 5612 5615 5617 5618 5619 5619 5619 5619 5618 5616 5614 5611 5608 5604
5445 5448 5452 5455 5460 5464 5470 5476 5482 5488 5495 5502 5508 5515 5521 5528 5535 5542 5549 5555 5562 5567 5573 5578 5584 5589 5593 5596 5600 5603 5605 5607 5610 5611 5612 5612 5611 5610 5608 5606 5603 5600 5596